星链-37247(STARLINK-37247)

导读

STARLINK-37247(NORAD 69835)是SpaceX星链(Starlink)低轨宽带通信星座的在轨卫星,隶属于星链V2 Mini卫星批次,由猎鹰9号火箭发射入轨,运行于高度约550千米的近地轨道,轨道周期约94-95分钟,倾角符合星链组网设计标准。该卫星是SpaceX规模化部署的量产通信卫星,单星制造成本约50-100万美元,主要用于提供全球高速天基互联网服务,通过星载相控阵天线实现地面终端通信,支持偏远地区、海事、航空等场景的网络覆盖,目前纳入北美防空司令部(NORAD)空间目标监测体系,可通过公开轨道数据(TLE)跟踪其运行轨迹,为星座组网扩容、提升全球服务容量发挥作用。

Basic Information
目录编号:
69835
目录名称:
STARLINK-37247
国际标识:
2026-154S
轨道中心:
EARTH
卫星名称:
星链-37247
卫星全名:
星链-37247(STARLINK-37247)
卫星状态:
在轨 (已飞行51 天)
发射日期:
2026-07-05 UTC
国别 :
美国 (US)
星等 :
--
Orbit Information
数据来源 国际轨道数据 AOE轨道数据
星历时间 2026-08-25T08:25:41+0800
18小时前
查看轨道信息
2026-08-20T23:00:00+0800
5天前
查看轨道信息
半长轴 6837.787km 6837.895km
偏心率 0.0000848 0.0001132
轨道倾角 53.161° 53.162°
近地点辐角 60.413° 121.991°
升交点赤经 95.438° 116.006°
平近点角 299.696° 63.336°
近地点 459.07km 458.983km
远地点 460.23km 460.533km
周期 93.785分钟 93.787分钟
每日圈数 15.35428 15.353917
Detailed Information
固有亮度:
5
最大亮度:
2.5
卫星平台:
Starlink V1.0
覆盖范围:
全球
运营商:
太空探索技术公司
运营商所在国:
美国
制造商(研发单位):
太空探索技术公司
制造商所在国:
美国
使用方式:
暂无
Satellite Introduction
Starlink 计划是 SpaceX 推出的全球卫星互联网项目,通过发射低轨道卫星,为全球尤其是偏远地区提供高速、低延迟的互联网服务。自 2019 年起,Starlink 已部署数千颗卫星,旨在缩小全球数字鸿沟,推动互联网普及。该项目还为军事、航空等行业提供通信支持,带来广泛经济效益。
2D Orbit Map
3D Orbit Map
Orbit Altitude Analysis Chart
Orbit Inclination Analysis Chart
Orbit Comprehensive Analysis Chart
View Comprehensive Chart